Moose Lake, MN

1:44 PM CDT on October 20, 2017 (GMT -0500)
Moose Lake-Carlton County

Weather History for KMZH - October, 2013

Change the Weather History Date:

Thursday, October 10, 2013

  Actual Average Record
Temperature  
Mean Temperature 58 °F -  
Max Temperature 73 °F 56 °F 82 °F (1960)
Min Temperature 42 °F 35 °F 12 °F (1956)
Degree Days  
Heating Degree Days 8    
Growing Degree Days 8 (Base 50)    
Moisture  
Dew Point 46 °F    
Average Humidity 70    
Maximum Humidity 100    
Minimum Humidity 36    
Precipitation  
Precipitation 0.00 in - - ()
Sea Level Pressure  
Sea Level Pressure 29.96 in    
Wind  
Wind Speed 2 mph (SSE)    
Max Wind Speed 10 mph    
Max Gust Speed 20 mph    
Visibility 8 miles    
Events Fog    
Averages and records for this station are not official NWS values.
T = Trace of Precipitation, MM = Missing Value Source: NWS Daily Summary

Daily Weather History Graph

Daily Weather History Graph

Search for Another Location

Airport or City:

Trip Planner

Search our weather history database for the weather conditions in past years. The results will help you decide how hot, cold, wet, or windy it might be!

Date:

Astronomy

Oct. 10, 2013 Rise Set
Actual Time 7:22 AM CDT 6:33 PM CDT
Civil Twilight 6:51 AM CDT 7:03 PM CDT
Nautical Twilight 6:17 AM CDT 7:38 PM CDT
Astronomical Twilight 5:41 AM CDT 8:13 PM CDT
Moon 1:27 PM CDT (10/10) 10:59 PM CDT (10/10)
Length of Visible Light 12h 11m
Length of Day
11h 11m
Waxing Crescent, 36% of the Moon is Illuminated
Oct 10
Waxing Crescent
Oct 11
First Quarter
Oct 18
Full
Oct 26
Last Quarter
Nov 3
New

Hourly Weather History & Observations

Time (CDT) Temp. Dew Point Humidity Pressure Visibility Wind Dir Wind Speed Gust Speed Precip Events Conditions
12:06 AM 46.4 °F 46.4 °F 100% 30.03 in 1.0 mi Calm Calm - N/A   Mist
12:26 AM 46.4 °F 46.4 °F 100% 30.03 in 4.0 mi Calm Calm - N/A   Scattered Clouds
12:46 AM 46.4 °F 46.4 °F 100% 30.03 in 7.0 mi Calm Calm - N/A   Scattered Clouds
1:06 AM 46.4 °F 46.4 °F 100% 30.03 in 10.0 mi Calm Calm - N/A   Clear
1:26 AM 46.4 °F 44.6 °F 93% 30.03 in 0.5 mi Calm Calm - N/A Fog Fog
1:46 AM 44.6 °F 44.6 °F 100% 30.03 in 0.8 mi Calm Calm - N/A   Scattered Clouds
2:06 AM 44.6 °F 44.6 °F 100% 30.03 in 7.0 mi Calm Calm - N/A   Scattered Clouds
2:26 AM 44.6 °F 42.8 °F 93% 30.03 in 2.0 mi Calm Calm - N/A   Mist
2:46 AM 44.6 °F 44.6 °F 100% 30.02 in 0.5 mi Calm Calm - N/A Fog Fog
3:06 AM 44.6 °F 44.6 °F 100% 30.02 in 10.0 mi Calm Calm - N/A   Scattered Clouds
3:26 AM 44.6 °F 42.8 °F 93% 30.02 in 1.2 mi Calm Calm - N/A   Scattered Clouds
3:46 AM 42.8 °F 42.8 °F 100% 30.02 in 3.0 mi Calm Calm - N/A   Mist
4:06 AM 44.6 °F 42.8 °F 93% 30.03 in 10.0 mi Calm Calm - N/A   Clear
4:26 AM 44.6 °F 42.8 °F 93% 30.03 in 7.0 mi Calm Calm - N/A   Clear
4:46 AM 42.8 °F 42.8 °F 100% 30.02 in 2.0 mi Calm Calm - N/A   Clear
5:06 AM 42.8 °F 42.8 °F 100% 30.02 in 2.5 mi Calm Calm - N/A   Mist
5:26 AM 42.8 °F 42.8 °F 100% 30.02 in 10.0 mi Calm Calm - N/A   Clear
5:46 AM 44.6 °F 42.8 °F 93% 30.01 in 10.0 mi Calm Calm - N/A   Clear
6:06 AM 42.8 °F 42.8 °F 100% 30.01 in 4.0 mi Calm Calm - N/A   Clear
6:26 AM 44.6 °F 42.8 °F 93% 30.02 in 7.0 mi Calm Calm - N/A   Clear
6:46 AM 42.8 °F 42.8 °F 100% 30.01 in 10.0 mi Calm Calm - N/A   Clear
7:06 AM 42.8 °F 41.0 °F 93% 30.01 in 2.0 mi Calm Calm - N/A   Mist
7:26 AM 42.8 °F 42.8 °F 100% 30.01 in 4.0 mi Calm Calm - N/A   Clear
7:46 AM 42.8 °F 42.8 °F 100% 30.01 in 10.0 mi Calm Calm - N/A   Clear
8:06 AM 44.6 °F 42.8 °F 93% 30.01 in 10.0 mi Calm Calm - N/A   Clear
8:26 AM 46.4 °F 44.6 °F 93% 30.00 in 10.0 mi Calm Calm - N/A   Clear
8:46 AM 50.0 °F 50.0 °F 100% 30.00 in 10.0 mi SSE 4.6 mph - N/A   Clear
9:06 AM 51.8 °F 46.4 °F 82% 30.00 in 10.0 mi SSE 3.5 mph - N/A   Clear
9:26 AM 53.6 °F 46.4 °F 77% 29.99 in 10.0 mi SSE 3.5 mph - N/A   Clear
9:46 AM 57.2 °F 46.4 °F 67% 29.99 in 10.0 mi South 4.6 mph - N/A   Clear
10:06 AM 59.0 °F 46.4 °F 63% 29.99 in 10.0 mi SSE 3.5 mph - N/A   Clear
10:26 AM 59.0 °F 46.4 °F 63% 29.99 in 10.0 mi SSE 4.6 mph - N/A   Clear
10:46 AM 60.8 °F 46.4 °F 59% 29.99 in 10.0 mi South 4.6 mph - N/A   Clear
11:06 AM 60.8 °F 46.4 °F 59% 29.98 in 10.0 mi SSE 3.5 mph - N/A   Clear
11:26 AM 62.6 °F 46.4 °F 55% 29.98 in 10.0 mi SSE 4.6 mph - N/A   Clear
11:46 AM 66.2 °F 46.4 °F 49% 29.97 in 10.0 mi SE 4.6 mph - N/A   Clear
12:06 PM 68.0 °F 46.4 °F 46% 29.97 in 10.0 mi SSE 5.8 mph - N/A   Clear
12:26 PM 68.0 °F 48.2 °F 49% 29.96 in 10.0 mi SSE 6.9 mph - N/A   Clear
12:46 PM 69.8 °F 48.2 °F 46% 29.96 in 10.0 mi South 10.4 mph - N/A   Clear
1:06 PM 71.6 °F 48.2 °F 43% 29.95 in 10.0 mi South 9.2 mph - N/A   Clear
1:26 PM 71.6 °F 48.2 °F 43% 29.94 in 10.0 mi South 10.4 mph 18.4 mph N/A   Clear
1:46 PM 71.6 °F 48.2 °F 43% 29.93 in 10.0 mi South 9.2 mph 16.1 mph N/A   Clear
2:06 PM 71.6 °F 46.4 °F 41% 29.92 in 10.0 mi SSE 6.9 mph 17.3 mph N/A   Clear
2:26 PM 71.6 °F 46.4 °F 41% 29.92 in 10.0 mi South 9.2 mph 19.6 mph N/A   Clear
2:46 PM 71.6 °F 46.4 °F 41% 29.91 in 10.0 mi South 6.9 mph 16.1 mph N/A   Clear
3:06 PM 73.4 °F 46.4 °F 38% 29.90 in 10.0 mi South 8.1 mph 18.4 mph N/A   Clear
3:26 PM 73.4 °F 44.6 °F 36% 29.90 in 10.0 mi SSE 10.4 mph 17.3 mph N/A   Clear
3:46 PM 71.6 °F 46.4 °F 41% 29.90 in 10.0 mi South 8.1 mph - N/A   Clear
4:06 PM 73.4 °F 46.4 °F 38% 29.89 in 10.0 mi South 5.8 mph - N/A   Clear
4:26 PM 73.4 °F 46.4 °F 38% 29.89 in 10.0 mi SSE 4.6 mph 16.1 mph N/A   Clear
4:46 PM 73.4 °F 46.4 °F 38% 29.89 in 10.0 mi South 8.1 mph - N/A   Clear
5:06 PM 71.6 °F 46.4 °F 41% 29.89 in 10.0 mi SSE 6.9 mph - N/A   Clear
5:26 PM 69.8 °F 46.4 °F 43% 29.89 in 10.0 mi South 5.8 mph - N/A   Clear
5:46 PM 69.8 °F 46.4 °F 43% 29.89 in 10.0 mi SSE 5.8 mph - N/A   Clear
6:06 PM 68.0 °F 46.4 °F 46% 29.89 in 10.0 mi SSE 3.5 mph - N/A   Clear
6:26 PM 66.2 °F 46.4 °F 49% 29.90 in 10.0 mi SE 4.6 mph - N/A   Clear
6:46 PM 64.4 °F 46.4 °F 52% 29.90 in 10.0 mi SSE 4.6 mph - N/A   Clear
7:06 PM 64.4 °F 46.4 °F 52% 29.90 in 10.0 mi Calm Calm - N/A   Clear
7:26 PM 62.6 °F 46.4 °F 55% 29.90 in 10.0 mi SE 3.5 mph - N/A   Clear
7:46 PM 62.6 °F 46.4 °F 55% 29.91 in 10.0 mi SE 3.5 mph - N/A   Scattered Clouds
8:06 PM 62.6 °F 46.4 °F 55% 29.92 in 10.0 mi Calm Calm - N/A   Scattered Clouds
8:26 PM 62.6 °F 46.4 °F 55% 29.91 in 10.0 mi East 3.5 mph - N/A   Clear
8:46 PM 60.8 °F 44.6 °F 55% 29.91 in 10.0 mi ESE 3.5 mph - N/A   Clear
9:06 PM 60.8 °F 46.4 °F 59% 29.91 in 10.0 mi Calm Calm - N/A   Clear
9:26 PM 60.8 °F 46.4 °F 59% 29.91 in 10.0 mi Calm Calm - N/A   Clear
9:46 PM 59.0 °F 44.6 °F 59% 29.91 in 10.0 mi ESE 5.8 mph - N/A   Clear
10:06 PM 59.0 °F 46.4 °F 63% 29.92 in 10.0 mi East 3.5 mph - N/A   Clear
10:26 PM 59.0 °F 44.6 °F 59% 29.92 in 10.0 mi East 3.5 mph - N/A   Clear
10:46 PM 53.6 °F 46.4 °F 77% 29.91 in 10.0 mi NE 4.6 mph - N/A   Clear
11:06 PM 51.8 °F 46.4 °F 82% 29.91 in 10.0 mi Calm Calm - N/A   Clear
11:26 PM 57.2 °F 46.4 °F 67% 29.91 in 10.0 mi ESE 4.6 mph - N/A   Clear
11:46 PM 59.0 °F 46.4 °F 63% 29.91 in 10.0 mi ESE 4.6 mph - N/A   Clear